Hood Army Air Field
KHLR : now visible

Airfield :











YOU CAN JOIN US ON...

 
LOGIN :

Register | Disclaimer

   EN    FR    IT 

 









Legend :    VFR   Marginal VFR   IFR   Intensive IFR   Very Intensive IFR
Visi :
Ceiling :
>= 8 km
>= 3000ft
5 to 8 km
1000 to 3000 ft
1500m to 5 km
500 to 1000 ft
800 to 1500m
200 to 500 ft
< 800m
< 200 ft
Symbols :   Thunderstorms  Fog  Heavy snow  Heavy precipitations  Wind > 20 kt






- Airport Elevation : 924 ft


KHLR - Hood Army Air Field

CURRENT METAR :
  • 101758Z AUTO 36012G18KT 9SM FEW280 22/M00 A2993 RMK AO2 SLP126 T02181003 10218 20116 58003

EXPIRED METARs :
  • 101749Z AUTO 03013G17KT 9SM FEW280 SCT330 22/M01 A2994 RMK AO2 WSHFT 45 SLP130
  • 101658Z AUTO 35009KT 9SM CLR 20/01 A2995 RMK AO2 SLP134 T02040013
  • 101558Z AUTO 36014G19KT 10SM CLR 18/01 A2996 RMK AO2 SLP137 T01830006

TAF N/A
KZHU FIR / North America



MET'MAP, your aeronautical weather chart ! - Copyright ORBIFLY December 2007 - Disclaimer

ORBIFLY MET'MAP TEAM :

Programming & Development : Alexandra Zaïnal
Concept & original design : Baudouin d'Aumeries
Assistance for programming : Marc-Olivier Méhu
Technical & hardware support : Manuel Goepfert

Contact : metmap@orbifly.com




SOURCES & CREDITS :

   NOAA       Earth
Advisory